GFSMW_prec_cloud_159.txt.gz
Cloud_Cover
96 6 5 0 5 5 5 5 2 0 4 6 17 73 100 100 100 89 100 25 54 90 76 67 65 32 18 5 7 6 5 36 5 17 5 5 5 5 5 5 5 5 88
88 95 52 0 0 1 5 28 3 3 99 5 5 5 76 19 98 100 100 100 75 95 100 70 24 26 7 5 3 5 4 6 82 80 5 5 5 5 5 10 10 22 4
19 65 86 3 0 0 3 66 64 4 73 52 5 5 5 5 42 68 93 100 100 99 48 23 98 96 98 56 5 3 4 28 90 100 15 6 4 5 4 5 82 5 5
5 23 5 4 0 0 0 4 50 14 11 5 2 5 5 5 4 45 67 95 100 81 24 50 5 58 11 4 0 0 5 0 7 68 5 6 4 5 4 5 0 7 8
92 100 64 4 5 0 6 0 13 10 5 5 84 100 20 2 4 1 1 99 100 74 42 8 5 5 8 5 0 4 0 0 0 8 6 41 5 8 5 4 0 0 14
74 100 90 53 6 93 27 43 1 0 4 1 20 100 100 100 83 3 0 2 58 95 100 93 5 5 0 1 1 0 0 0 0 0 8 5 5 5 6 5 4 0 1
55 3 5 5 5 53 49 5 4 3 1 0 2 5 52 100 98 98 3 0 0 3 55 41 68 38 5 1 0 0 0 2 0 3 5 6 0 4 5 5 5 4 2
0 3 68 63 7 25 11 0 3 5 5 2 3 3 4 38 40 7 7 0 0 0 0 1 1 76 16 43 5 5 2 0 0 0 4 1 3 4 5 5 0 2 0
1 0 3 94 5 29 35 28 6 5 5 5 4 1 2 6 42 55 37 83 0 0 0 3 0 2 5 5 5 3 5 3 0 0 0 0 0 5 5 5 0 0 0
7 4 0 26 71 3 0 5 5 5 14 10 4 5 0 5 5 95 100 94 0 1 0 0 0 0 0 40 2 0 4 5 0 0 0 0 0 1 5 3 0 2 8
26 61 5 3 93 42 5 76 30 64 11 5 4 2 0 0 6 88 100 100 100 11 0 5 2 3 3 1 0 0 0 2 5 0 0 0 0 0 0 8 3 0 14
100 87 30 2 6 23 100 64 97 100 32 9 5 6 63 49 52 72 100 100 97 100 98 36 5 12 5 2 0 1 0 0 0 0 0 0 0 0 0 23 6 5 1
22 11 5 5 5 86 16 37 33 35 62 84 64 87 58 58 86 71 99 100 100 100 100 100 100 100 100 100 61 5 30 5 0 0 0 0 0 0 0 9 17 10 15
100 5 8 90 7 92 97 57 100 100 100 89 100 84 0 3 8 96 100 100 100 100 100 100 100 100 100 100 100 28 0 0 0 0 0 0 0 0 0 0 0 5 10
38 43 2 94 19 80 100 100 96 97 99 15 74 1 77 100 63 61 100 100 100 100 100 100 100 100 100 100 100 100 95 23 1 0 0 0 0 0 0 0 1 0 16
0 0 26 100 100 100 100 94 50 92 91 7 5 69 5 43 2 0 96 100 100 100 100 100 100 100 100 100 100 100 100 100 87 0 0 0 0 0 0 0 0 0 0
0 0 6 60 100 100 100 49 100 99 22 13 14 97 100 100 52 17 48 100 100 100 100 100 100 100 100 100 100 100 100 100 100 100 72 0 0 0 0 2 0 10 6
4 4 84 48 100 100 100 100 100 100 31 60 78 100 100 100 99 96 43 17 98 100 100 100 100 100 100 100 100 90 100 100 100 100 100 23 5 5 5 3 0 11 18
1 0 0 95 100 100 100 100 100 100 100 100 100 100 100 100 51 43 5 13 4 71 100 100 100 100 100 100 99 49 84 100 53 9 98 49 5 57 22 89 32 16 12
0 4 12 100 100 100 100 100 100 100 100 100 100 100 100 95 7 17 19 16 5 6 2 92 100 100 100 100 100 100 96 98 88 99 8 26 54 33 53 35 96 91 100
0 0 32 100 100 100 100 100 100 100 100 100 98 93 5 16 22 23 36 37 74 95 94 99 84 83 83 80 97 92 49 41 7 67 100 99 66 88 100 90 99 100 100
27 31 54 100 100 100 100 100 100 100 100 100 100 52 45 5 16 62 58 100 100 100 100 72 85 98 83 100 91 57 76 80 72 14 7 34 98 100 100 100 100 100 100
30 5 21 100 100 100 100 100 100 100 100 100 84 10 0 36 86 31 21 61 57 100 100 96 100 100 100 100 100 99 97 100 100 100 40 95 100 100 100 100 100 100 100
98 22 28 100 100 100 100 100 100 100 6 20 83 12 28 80 17 5 100 100 100 100 100 100 100 100 100 100 100 100 100 100 100 100 100 100 100 100 100 100 100 100 100
26 0 2 82 100 100 100 100 97 91 100 13 14 21 58 46 49 27 29 62 97 100 100 100 100 100 100 100 100 100 100 100 100 100 100 100 100 100 100 100 100 100 100
19 25 15 13 96 100 100 100 100 62 12 36 31 27 32 32 39 13 5 5 7 16 70 100 100 100 100 100 100 100 100 100 100 100 100 100 100 100 100 100 100 100 100

GFSMW_prec_cloud_162.txt.gz
Cloud_Cover
20 17 0 0 5 5 5 5 0 5 7 28 90 70 100 95 100 100 90 100 100 86 14 35 35 85 100 5 5 0 2 99 68 100 100 77 5 38 5 5 5 22 5
47 17 5 0 0 1 9 72 2 54 5 78 100 100 100 100 86 90 99 100 47 38 13 7 18 9 79 7 4 2 1 15 67 85 76 99 57 59 7 5 36 89 5
68 94 44 1 0 0 3 76 31 5 7 5 5 9 95 82 95 100 100 96 64 65 16 46 100 7 47 42 5 5 2 2 10 5 62 72 100 72 5 5 5 45 13
42 97 94 76 5 1 0 4 96 5 4 5 5 5 5 5 5 39 88 100 62 97 100 21 88 100 92 12 59 13 2 0 7 5 5 40 98 100 69 5 45 12 12
56 90 100 100 75 24 4 0 3 5 5 1 38 99 75 7 5 5 5 97 100 100 90 100 39 5 5 5 3 5 5 0 4 5 5 5 92 15 67 7 5 10 6
100 12 5 97 100 93 54 100 65 43 5 5 5 50 100 100 84 5 5 5 26 71 82 100 92 70 5 4 0 5 5 0 1 3 1 4 9 22 7 5 5 5 5
70 100 91 47 60 100 94 57 100 61 1 4 5 4 3 50 48 9 25 4 4 5 34 100 56 58 48 4 0 0 1 1 0 0 0 0 1 5 5 5 6 6 5
17 56 91 21 97 29 89 5 20 29 0 1 5 5 0 1 5 28 53 100 57 0 0 0 49 64 40 75 5 0 0 0 0 0 0 0 0 2 5 5 30 55 46
0 4 0 0 15 5 86 24 15 9 0 0 1 4 0 5 100 100 100 100 84 1 24 1 0 0 5 42 5 5 0 3 0 0 0 0 0 0 0 1 5 5 5
4 4 0 0 0 4 59 100 99 100 5 5 5 5 0 4 100 100 100 100 100 16 1 4 4 0 4 0 2 4 5 2 0 0 0 0 0 0 0 1 0 5 5
3 5 4 5 5 5 28 10 95 89 18 22 66 5 0 0 73 100 100 100 100 95 3 0 1 1 0 0 0 0 1 4 5 0 0 0 0 0 0 16 26 5 5
5 5 4 5 4 5 54 5 0 5 5 5 54 5 1 2 1 88 100 100 100 100 100 100 26 35 5 5 5 2 5 50 77 40 5 5 3 0 0 0 0 0 59
71 17 5 44 2 13 41 5 5 3 42 96 38 19 31 28 2 76 74 100 100 100 100 100 100 100 100 74 28 6 11 6 6 10 5 1 0 0 0 0 0 0 2
2 69 92 27 54 5 5 5 5 4 1 55 93 6 36 17 17 10 7 52 100 82 96 98 100 100 100 100 100 100 100 96 85 13 5 3 2 0 0 0 0 0 2
0 4 57 5 56 26 14 5 85 41 8 70 99 49 5 98 3 8 15 95 100 100 100 99 100 21 98 100 95 82 99 100 100 98 3 0 0 0 0 1 0 0 0
0 0 4 4 5 36 12 36 91 66 22 5 10 79 55 66 97 38 23 36 100 100 100 93 100 100 97 65 93 5 9 98 90 93 100 100 100 4 9 5 3 0 4
1 0 0 0 0 1 5 100 66 89 49 5 91 96 100 100 100 94 100 100 53 100 100 100 100 91 100 45 82 25 8 88 15 22 30 78 100 100 100 75 12 16 4
5 0 0 0 0 0 5 88 96 60 48 92 100 98 100 100 100 72 100 100 100 67 56 100 100 100 96 100 94 100 98 82 99 100 98 100 100 96 66 10 47 2 1
2 0 0 0 0 11 26 81 95 100 97 100 97 100 100 100 100 100 100 100 86 48 31 17 100 100 100 78 81 100 76 23 99 100 92 79 100 100 98 51 28 18 51
0 0 0 0 24 23 87 100 100 100 100 100 97 100 100 100 100 100 100 100 16 5 5 5 5 18 39 97 100 100 100 100 100 91 33 89 53 27 67 48 20 67 29
3 0 0 3 100 95 91 72 92 100 100 94 28 100 100 100 88 95 92 16 5 4 3 4 5 0 8 97 100 100 100 100 100 100 100 77 47 63 100 96 80 44 28
5 1 18 95 100 76 41 100 100 100 100 100 100 100 100 52 27 7 25 49 5 4 5 4 1 0 0 10 30 93 100 100 100 100 100 33 97 100 100 100 100 100 100
5 10 84 100 100 55 77 100 100 100 100 100 100 100 53 61 100 61 76 100 100 64 96 97 98 67 41 96 100 100 100 100 100 100 100 100 99 100 100 100 100 100 100
60 74 100 100 100 66 100 100 100 100 100 100 100 96 100 100 100 91 79 92 50 94 100 100 100 100 100 100 100 100 100 100 100 100 100 100 100 82 100 100 100 100 100
89 55 87 99 100 79 100 100 100 100 100 99 52 91 100 100 100 100 36 38 57 59 95 100 100 100 100 100 100 100 100 100 100 100 100 100 100 100 100 100 100 100 100
80 44 46 98 100 100 100 100 100 54 96 100 99 96 23 20 9 5 5 13 4 5 10 31 96 100 100 100 100 100 100 100 100 100 100 100 100 100 100 100 100 100 100

GFSMW_prec_cloud_165.txt.gz
Cloud_Cover
13 5 5 0 86 6 10 9 5 5 5 13 6 32 94 100 100 100 100 88 100 6 5 9 29 100 96 5 5 2 0 51 60 5 30 23 27 5 77 87 37 5 34
100 6 5 64 1 13 70 53 88 10 4 92 73 100 100 99 83 98 100 98 94 3 4 5 8 75 7 24 4 5 0 6 14 71 95 100 86 8 6 94 26 5 19
100 89 15 81 5 3 51 100 35 96 36 6 37 35 100 90 100 100 100 90 72 11 5 5 5 5 3 4 4 6 5 2 44 5 71 100 72 48 35 15 90 6 46
56 11 46 33 7 5 1 7 100 100 99 5 17 68 56 17 93 6 7 97 45 45 48 10 3 5 5 4 5 3 15 5 11 16 5 25 57 5 91 76 89 42 57
100 100 100 94 5 5 87 41 29 100 100 5 10 7 15 6 12 5 9 52 99 66 5 20 5 3 5 8 5 9 4 3 5 5 5 5 6 5 21 64 84 80 76
100 100 95 29 5 5 11 35 8 4 60 98 8 11 5 96 5 5 5 5 5 5 76 93 9 48 37 20 10 5 1 0 0 4 5 5 5 5 5 5 5 33 100
60 18 91 100 34 5 5 5 4 81 4 18 79 5 5 31 12 5 5 5 5 6 41 100 100 86 93 60 5 5 1 0 0 0 0 3 1 4 4 0 0 0 12
3 6 6 100 80 5 5 5 4 5 5 5 9 5 5 3 2 27 100 100 97 4 5 5 5 57 80 100 82 56 2 0 0 0 0 0 5 0 0 0 0 0 0
3 0 0 25 99 94 13 5 98 39 5 5 5 0 21 2 10 100 100 100 100 97 7 0 1 0 5 99 100 9 5 5 0 0 0 0 0 0 0 0 0 0 0
0 0 0 0 5 49 33 35 5 5 3 3 5 1 0 4 99 100 100 100 100 100 100 3 32 91 82 0 56 23 87 97 6 0 0 1 0 0 0 0 4 7 1
0 0 0 0 1 4 2 2 4 5 2 5 0 0 0 1 91 45 100 100 100 100 100 57 1 2 1 4 0 2 4 16 8 5 0 0 0 0 0 0 0 0 3
0 0 0 4 4 1 0 0 41 60 69 8 0 1 0 1 4 67 29 100 100 100 100 100 78 0 0 1 0 0 0 0 0 0 0 0 0 0 0 0 0 0 0
0 4 2 2 2 3 0 0 1 35 4 5 6 6 5 5 7 25 6 42 100 100 100 90 96 100 54 5 4 0 0 0 0 0 0 0 0 4 5 3 0 0 0
5 7 19 3 5 5 1 0 3 4 5 4 20 53 28 3 5 74 41 7 87 88 100 97 34 49 85 100 100 83 48 5 0 13 77 20 3 2 0 2 1 0 0
5 0 2 5 3 1 4 4 1 5 5 60 9 1 30 0 1 50 41 65 33 15 31 52 43 5 37 5 10 4 33 70 97 100 100 54 5 5 0 0 0 0 0
5 5 2 4 0 0 4 5 5 5 5 22 5 14 37 0 17 100 100 100 9 31 46 35 26 31 4 5 5 5 5 5 5 5 8 97 86 100 100 76 0 0 0
5 0 0 0 0 0 0 3 6 41 65 99 19 56 96 41 35 100 100 90 100 85 83 87 96 96 98 100 100 100 100 100 70 32 44 100 90 5 9 44 91 85 9
5 0 0 1 0 0 0 0 48 19 31 100 100 95 98 94 100 100 100 90 100 100 38 4 28 26 2 4 1 19 42 72 92 100 100 72 58 16 14 63 61 99 21
72 11 2 0 0 0 0 0 0 33 52 100 100 76 88 76 100 100 78 100 100 81 99 62 5 0 5 86 56 54 48 48 9 42 35 99 100 96 84 90 96 99 82
100 78 0 5 0 90 70 100 100 100 100 100 100 100 74 42 100 100 100 100 92 95 100 99 5 0 0 0 0 5 7 22 29 86 56 18 45 23 95 100 100 100 67
100 100 5 5 9 100 100 100 100 100 100 100 100 100 83 100 100 100 91 54 62 11 53 54 5 0 0 0 0 0 100 86 100 99 57 4 1 66 99 96 99 88 97
76 100 47 100 100 100 36 44 40 72 99 100 100 100 100 100 100 100 43 5 4 13 5 3 3 0 6 4 2 47 80 99 100 100 100 94 91 100 100 100 92 100 100
5 5 96 99 100 96 4 0 25 74 100 100 100 100 100 100 100 93 36 5 5 5 5 19 90 19 25 60 98 97 71 99 100 100 100 99 99 100 100 74 100 100 100
3 38 100 100 100 73 40 35 52 99 100 100 100 100 100 100 98 68 6 90 13 5 5 57 20 49 88 100 100 100 100 100 100 100 100 100 100 100 100 70 100 100 100
5 3 74 100 100 73 61 30 44 100 100 100 100 100 100 100 100 60 34 80 7 31 97 18 56 99 100 100 100 100 100 100 100 100 100 100 100 100 100 100 100 100 100
61 17 98 100 100 86 46 5 4 100 100 100 100 100 100 100 100 16 3 52 78 64 78 99 52 26 82 70 100 100 100 100 100 100 100 100 100 100 100 100 100 100 100

GFSMW_prec_cloud_168.txt.gz
Cloud_Cover
75 5 4 0 100 14 5 0 34 74 55 88 52 34 36 37 68 45 74 66 6 5 3 5 5 100 27 5 0 0 2 98 56 55 23 68 7 100 9 5 10 7 6
100 80 18 3 1 20 13 18 27 42 40 91 81 63 21 62 89 96 100 100 43 62 5 5 3 98 100 71 5 5 0 8 19 7 12 100 40 54 96 5 5 45 32
93 100 90 35 0 5 74 13 88 5 5 26 18 16 79 88 91 58 80 90 100 48 46 5 1 32 6 78 12 36 5 90 23 5 24 17 62 14 100 16 5 31 59
99 100 100 98 28 5 5 55 58 5 5 5 11 5 24 46 16 49 74 20 48 5 5 4 0 4 5 3 11 46 9 5 26 7 94 9 23 56 95 100 41 38 46
59 100 100 96 85 7 3 5 75 98 10 5 15 5 30 99 84 55 9 5 5 23 67 6 0 8 6 2 0 11 5 5 5 5 5 4 8 11 6 91 84 22 88
11 54 100 83 89 83 5 5 6 95 100 34 13 23 83 96 15 5 5 5 63 87 95 74 96 98 75 8 15 5 18 14 5 5 5 5 3 5 1 5 13 37 36
100 34 82 100 100 91 38 26 4 5 41 78 48 88 44 5 85 5 5 5 46 29 73 81 70 42 26 24 70 45 5 3 4 5 15 12 0 2 4 0 0 5 5
2 12 98 52 60 100 95 89 5 3 3 32 1 7 65 5 3 9 79 98 79 38 28 88 86 100 97 100 97 100 98 20 2 5 1 1 0 0 0 0 0 0 1
0 0 2 5 96 93 86 100 14 5 3 40 10 5 2 4 5 92 100 100 100 100 100 94 4 0 2 33 5 5 73 18 5 7 12 10 8 0 11 33 12 0 0
0 0 3 0 7 8 39 40 6 62 15 22 31 59 5 1 3 8 100 100 100 83 100 47 11 0 0 0 0 1 5 5 5 5 49 10 4 33 42 22 37 15 7
0 0 0 0 0 1 5 5 37 33 9 5 11 25 5 0 5 5 100 100 100 100 100 100 100 22 0 0 0 0 0 1 5 5 5 1 4 1 89 77 42 38 18
0 0 0 0 0 0 0 0 3 5 5 5 79 7 0 0 2 85 27 57 99 100 100 100 100 100 94 5 0 0 0 0 0 0 2 5 5 5 5 1 5 48 18
0 0 0 0 0 0 0 0 0 4 5 40 6 4 5 3 10 82 32 5 5 36 100 100 83 79 79 100 81 3 0 0 0 0 0 6 6 4 7 46 49 36 46
0 5 3 2 2 0 0 0 0 3 0 5 5 7 14 5 34 96 23 5 5 7 49 60 96 5 5 41 94 100 61 6 5 14 2 0 1 2 5 1 0 0 0
4 5 16 5 3 5 3 0 0 0 4 4 5 4 28 5 2 2 4 0 5 5 53 5 13 42 5 7 7 31 68 36 24 1 2 6 22 75 12 1 0 11 2
12 5 4 5 1 0 0 2 4 2 5 5 5 13 5 47 5 100 8 5 2 6 24 44 80 84 56 36 4 24 5 4 22 7 5 19 8 15 23 0 0 0 0
5 5 2 4 5 0 0 0 0 4 0 5 5 26 7 5 2 31 67 5 80 100 62 99 100 100 99 25 63 35 36 59 50 42 54 33 3 53 96 67 28 16 4
6 14 3 3 0 0 0 0 0 0 0 0 5 7 13 28 0 0 31 54 95 100 100 100 91 52 40 8 16 6 0 2 6 16 30 46 12 32 92 48 86 86 10
14 100 5 5 5 4 4 0 0 0 0 0 3 11 41 92 98 67 71 87 60 58 100 49 29 5 4 0 0 5 4 0 2 5 4 5 5 5 58 100 97 74 13
5 5 41 7 3 5 5 6 0 4 49 70 91 51 90 100 100 100 36 11 15 100 17 44 10 4 5 26 5 8 0 0 0 0 0 2 4 0 16 89 94 100 86
5 5 5 5 9 20 12 76 69 91 100 100 100 97 100 100 100 100 57 98 32 27 5 3 5 7 15 28 5 2 25 8 11 1 3 0 0 0 0 9 34 49 40
5 5 1 0 5 5 9 60 84 78 70 87 100 98 97 100 100 100 85 100 98 99 23 5 5 8 60 9 10 5 99 99 100 83 54 62 60 38 40 67 36 76 96
18 4 0 96 40 21 24 35 68 69 39 44 58 94 100 100 100 100 100 100 100 100 61 2 31 12 5 27 95 100 66 48 88 92 100 99 96 100 100 99 100 100 99
64 6 53 97 98 27 9 0 28 0 0 0 53 95 100 100 100 100 100 100 100 100 96 96 10 5 43 73 86 87 73 61 82 100 100 100 84 100 99 100 96 68 86
99 12 17 71 100 28 3 0 1 3 1 8 58 99 100 100 100 100 100 100 100 98 98 77 23 96 25 46 58 99 100 100 99 100 100 100 100 100 100 100 100 73 100
100 48 86 83 100 45 0 0 4 0 0 2 89 100 100 100 100 100 100 100 100 99 83 100 46 12 50 37 64 46 98 91 100 100 100 100 100 100 100 100 100 100 100

GFSMW_prec_cloud_171.txt.gz
Cloud_Cover
100 93 14 1 100 0 0 0 41 92 100 100 90 100 100 100 100 84 88 77 64 55 100 17 22 100 73 68 11 17 8 34 84 38 89 86 93 84 32 18 46 48 34
100 93 5 11 84 30 0 1 4 44 47 36 48 100 98 100 94 100 98 100 20 47 57 40 47 8 100 96 7 5 49 57 5 5 6 100 100 100 89 44 92 5 96
100 32 24 44 3 63 2 4 4 3 1 7 20 75 100 76 30 67 54 99 97 99 84 5 17 86 25 100 6 4 4 89 84 1 2 33 100 32 99 57 71 7 24
5 100 98 100 75 8 61 16 85 6 11 92 96 67 23 13 23 7 58 39 100 100 74 84 5 5 4 85 53 5 32 62 39 67 28 2 3 5 1 39 100 42 100
51 65 80 100 100 38 6 5 54 12 5 21 90 19 5 43 50 19 5 37 19 100 100 100 54 4 0 5 5 34 2 68 20 25 11 8 2 0 0 0 29 84 100
45 42 89 100 100 100 75 3 58 100 6 5 5 4 90 35 24 5 24 16 50 42 75 93 33 5 10 24 46 5 0 0 10 2 3 5 0 26 62 22 8 3 9
100 100 6 60 98 99 92 55 53 82 100 47 20 7 6 98 36 43 6 98 99 98 53 17 42 14 20 11 52 65 13 4 0 3 0 5 5 0 0 0 0 0 0
4 80 100 36 5 42 64 75 56 96 67 100 100 82 51 38 30 83 24 26 44 100 100 31 33 81 72 89 43 9 52 92 85 58 28 0 18 4 4 13 11 4 0
5 0 30 100 89 59 99 100 22 97 100 30 5 5 45 100 71 5 21 100 100 100 100 100 98 100 5 18 54 92 5 5 21 27 19 9 1 20 14 26 90 9 15
5 0 0 1 10 53 94 46 100 34 63 25 8 65 96 5 5 5 5 100 100 100 100 100 100 100 82 2 0 1 30 5 5 7 87 73 25 21 71 4 42 55 76
0 0 0 0 0 0 6 98 78 13 9 5 5 5 64 68 2 2 5 16 100 100 100 100 78 80 100 31 6 20 6 5 1 5 0 3 5 0 60 31 21 98 50
2 0 0 0 0 0 0 5 26 24 56 63 5 5 5 5 8 0 2 5 83 100 100 100 100 100 28 100 100 70 1 22 14 8 0 0 2 1 3 1 0 63 16
0 0 0 0 0 0 0 0 5 5 6 8 72 6 5 5 5 2 0 5 45 87 99 100 100 100 32 22 88 85 74 26 3 0 0 0 5 2 6 5 24 4 80
0 0 0 0 0 0 0 0 0 3 5 5 5 58 17 5 4 5 1 0 4 5 3 48 100 96 52 4 4 4 79 48 91 100 53 3 3 5 53 31 5 5 5
0 0 0 2 5 4 4 0 0 0 0 1 0 3 5 5 5 6 47 4 0 0 0 1 7 5 4 5 2 4 55 89 100 53 5 0 0 0 5 5 5 32 34
4 3 0 0 0 3 0 0 0 0 0 0 0 0 1 5 5 5 5 0 4 5 0 5 7 7 5 100 92 100 1 8 30 4 3 5 5 0 0 0 0 92 97
0 0 1 1 1 4 5 0 0 0 0 0 0 0 0 3 4 5 0 28 42 3 5 43 87 100 37 98 49 3 1 7 37 65 35 6 6 21 8 1 10 12 5
0 4 0 1 3 5 5 5 0 1 0 0 0 0 0 3 7 15 32 56 31 73 19 72 100 100 71 62 14 5 0 0 3 5 4 3 4 5 8 76 20 35 13
0 5 3 2 2 0 0 5 5 5 3 4 3 36 2 42 47 7 31 38 73 38 68 92 100 100 100 38 79 0 0 0 0 1 3 2 2 5 5 78 71 23 16
10 1 5 57 96 95 1 5 5 10 16 9 99 86 42 81 65 31 10 68 93 97 46 5 53 70 83 5 5 8 5 5 4 5 42 5 6 5 0 14 5 42 19
44 12 5 5 5 5 5 2 5 24 55 56 56 39 92 99 99 86 100 97 100 100 90 5 100 100 95 5 7 6 5 5 5 83 30 23 91 5 5 21 5 5 6
0 5 5 14 28 5 5 30 81 99 82 61 56 100 100 96 44 85 100 100 100 100 67 73 76 100 77 11 6 5 8 28 96 43 12 18 28 68 100 94 61 44 78
0 0 5 7 5 5 5 3 93 100 76 84 94 100 100 99 51 100 100 100 100 100 100 100 100 98 16 11 8 40 91 64 100 99 89 73 92 82 83 62 100 98 95
4 1 22 31 5 10 9 37 94 100 92 92 89 94 95 95 88 100 100 100 100 100 100 100 100 100 92 5 9 72 82 90 100 100 99 85 82 75 97 100 100 100 100
5 10 71 36 56 10 19 28 74 99 72 56 21 11 0 67 100 100 100 100 100 100 100 100 100 100 100 43 40 80 100 100 100 100 100 100 100 100 100 100 100 100 100
5 18 31 88 63 42 14 17 20 36 31 1 0 0 0 4 97 100 100 100 100 100 100 100 100 100 87 98 47 96 100 63 98 100 100 100 100 100 100 100 100 100 100

GFSMW_prec_cloud_174.txt.gz
Cloud_Cover
100 100 100 3 100 10 0 4 5 42 100 100 100 100 100 100 100 100 89 93 100 100 100 6 5 19 57 100 100 100 21 47 96 100 100 38 78 6 99 5 99 100 100
100 100 100 14 95 31 0 0 6 93 100 100 100 98 78 61 65 100 92 75 82 15 56 28 20 5 78 100 100 31 34 100 12 62 98 85 100 5 28 34 100 100 100
5 100 100 33 2 97 5 0 0 52 100 100 100 100 83 82 100 49 94 57 23 47 5 5 88 4 5 24 86 66 12 5 38 40 20 41 93 5 91 67 99 97 100
87 77 100 66 22 3 48 5 0 0 69 17 100 100 80 90 100 87 25 73 14 29 93 69 5 67 74 2 96 100 98 30 12 98 31 0 0 0 2 46 52 99 54
31 82 99 100 88 84 4 19 5 2 0 5 5 13 5 81 91 33 82 68 5 12 100 100 47 5 5 5 55 100 100 5 30 0 40 76 1 0 0 0 8 0 49
100 60 64 100 100 100 80 12 46 78 34 13 0 0 5 5 5 5 5 5 5 5 73 100 100 100 31 0 0 0 2 5 4 5 2 2 1 5 60 99 66 41 20
39 97 21 60 87 100 100 100 4 84 85 45 5 1 12 5 75 34 5 5 5 5 5 58 100 100 98 40 4 1 1 4 0 4 4 0 0 6 0 5 0 1 22
10 76 99 97 56 100 100 100 56 5 99 99 25 23 70 7 15 15 37 15 94 4 93 89 90 51 13 35 16 5 5 5 5 5 20 0 1 0 0 0 49 2 23
5 4 97 100 100 16 78 100 92 50 44 90 100 99 74 28 5 5 5 10 100 99 92 82 86 5 5 5 5 5 5 5 7 10 66 88 58 4 10 93 41 2 97
5 5 2 16 100 100 78 38 100 100 94 99 40 84 100 100 58 5 5 4 94 100 100 92 29 90 31 9 87 5 3 5 15 5 40 5 0 66 1 5 65 0 7
0 3 5 4 1 80 100 78 96 100 100 78 64 100 6 4 3 4 0 0 64 100 100 100 100 100 90 53 90 96 48 5 5 5 5 26 3 5 3 0 0 0 26
1 0 0 3 5 5 5 80 61 100 100 100 100 100 81 3 3 5 47 0 5 62 100 100 48 100 100 48 100 100 100 98 96 5 31 50 94 2 0 5 0 2 2
0 0 0 0 0 5 5 0 3 4 97 100 100 92 100 54 5 3 5 5 5 7 35 66 18 95 100 9 5 75 5 5 49 79 88 99 99 28 0 0 0 5 5
0 0 0 0 0 0 0 0 0 0 0 10 60 98 76 65 79 5 0 0 2 0 24 7 4 13 93 7 5 5 5 6 40 87 100 100 97 89 5 0 0 5 5
0 0 0 0 0 0 0 0 0 0 0 1 5 7 33 21 66 8 4 3 5 0 0 5 2 1 4 5 3 5 5 50 91 100 47 18 5 5 4 0 0 5 87
17 0 0 0 0 4 2 0 0 0 0 0 0 4 5 5 5 5 6 5 4 0 0 0 0 0 0 29 56 100 67 99 100 33 0 1 0 5 5 5 0 0 5
0 0 0 0 0 0 0 3 0 0 0 0 0 0 4 0 0 5 4 5 4 2 0 0 0 5 72 100 100 100 100 100 34 3 4 5 0 1 1 19 21 19 58
0 0 0 0 0 0 4 3 0 3 3 5 0 0 0 0 0 0 0 3 4 5 3 0 0 14 90 100 100 100 100 7 23 1 0 0 2 4 0 0 0 1 0
0 0 0 5 4 0 1 5 5 5 5 5 0 0 0 0 0 0 0 0 0 5 4 39 3 72 86 100 100 100 51 5 4 0 0 0 0 0 0 5 0 2 0
1 0 0 2 5 5 5 3 3 0 2 0 0 0 0 0 0 0 0 0 4 5 92 96 97 100 100 97 50 77 100 30 0 0 0 0 0 0 2 28 2 0 0
2 0 2 0 5 5 5 10 29 10 0 0 0 13 10 2 20 30 62 91 98 97 100 99 98 15 9 5 17 44 100 60 5 1 3 0 0 0 4 5 5 2 0
3 0 91 25 10 29 67 5 24 32 24 49 73 59 46 62 99 100 100 99 95 100 100 100 100 100 94 52 13 82 81 58 29 60 50 17 5 5 12 94 100 100 100
14 0 76 63 28 56 77 18 92 95 100 100 95 40 85 94 98 100 100 27 22 100 100 100 100 100 91 5 5 59 100 11 51 97 98 100 100 100 96 88 100 79 96
100 10 70 8 5 5 20 7 25 88 98 100 78 51 96 75 100 99 100 90 61 100 100 100 100 75 92 92 100 84 95 22 31 81 100 100 100 100 100 100 98 100 100
100 100 98 50 4 56 36 25 59 100 100 100 94 100 100 94 100 100 100 100 100 100 100 100 100 100 100 100 100 100 100 100 100 88 100 100 100 100 100 100 99 87 94
34 100 98 96 5 100 100 56 100 43 42 60 81 17 5 5 0 18 13 11 96 100 100 100 100 100 100 100 100 100 100 100 100 100 100 100 100 100 100 100 100 100 100